Location: Prairie Dale
(45.6972°N, 104.5033°W)
Time: 15:26:25
(UTC+00:00)

ESTCUBE 1 - Pass Details

Date: 04 July 2022
Orbit: 646 x 657 km, 97.9° (Epoch: 07 August)

Event Time Altitude Azimuth Distance (km) Brightness Sun altitude
Exits shadow 06:38:47 - 250° (WSW) 2,199 ? -21.2°
Drops below altitude 10° 06:40:27 10° 270° (W) 2,055 ? -21.3°
Maximum altitude 06:40:40 10° 273° (W) 2,053 ? -21.3°
Sets 06:45:49 0° 324° (NW) 2,975 ? -21.3°
